Weather History for Topeka, KS

Change the Weather History Date:

Saturday, January 19, 2013

  Actual Average Record
Temperature  
Mean Temperature 53 °F 30 °F  
Max Temperature 66 °F 40 °F 66 °F (1895)
Min Temperature 39 °F 19 °F -23 °F (1892)
Degree Days  
Heating Degree Days 12 35  
Month to date heating degree days 573 672  
Since 1 July heating degree days 2341 2689  
Cooling Degree Days 0 0  
Month to date cooling degree days 0 0  
Year to date cooling degree days 0 0  
Growing Degree Days 2 (Base 50)    
Moisture  
Dew Point 28 °F    
Average Humidity 43    
Maximum Humidity 64    
Minimum Humidity 22    
Precipitation  
Precipitation 0.00 in 0.02 in 0.94 in (1980)
Month to date precipitation 0.30 0.46  
Year to date precipitation 0.30 0.46  
Snow  
Snow 0.00 in 0.10 in 8.70 in (2011)
Month to date snowfall T 2.9  
Year to date snowfall T 2.9  
Since 1 July snowfall 5.4 9.4  
Snow Depth 0.00 in    
Sea Level Pressure  
Sea Level Pressure 30.08 in    
Wind  
Wind Speed 9 mph (West)    
Max Wind Speed 20 mph    
Max Gust Speed 26 mph    
Visibility 10 miles    
Events      
T = Trace of Precipitation, MM = Missing Value Source: NWS Daily Summary

Daily Weather History Graph

Daily Weather History Graph

Search for Another Location

Airport:

Trip Planner

Search our weather history database for the weather conditions in past years. The results will help you decide how hot, cold, wet, or windy it might be!

Date:

Astronomy

Jan. 19, 2013 Rise Set
Actual Time 7:38 AM CST 5:28 PM CST
Civil Twilight 7:09 AM CST 5:57 PM CST
Nautical Twilight 6:36 AM CST 6:30 PM CST
Astronomical Twilight 6:04 AM CST 7:02 PM CST
Moon 11:55 AM CST 1:14 AM CST
Length of Visible Light 10h 48m
Length of Day
9h 50m
First Quarter, 57% of the Moon is Illuminated
Jan 19
First Quarter
Jan 26
Full
Feb 3
Last Quarter
Feb 10
New
Feb 17
First Quarter

Hourly Weather History & Observations

Time (CST) Temp. Windchill Dew Point Humidity Pressure Visibility Wind Dir Wind Speed Gust Speed Precip Events Conditions
12:53 AM 45.0 °F 40.1 °F 28.9 °F 53% 30.00 in 10.0 mi SSW 9.2 mph - N/A   Clear
1:53 AM 44.1 °F 40.1 °F 28.9 °F 55% 30.01 in 10.0 mi SSW 6.9 mph - N/A   Clear
2:53 AM 43.0 °F 37.7 °F 28.9 °F 58% 30.00 in 10.0 mi SSW 9.2 mph - N/A   Clear
3:53 AM 42.1 °F 39.2 °F 28.9 °F 60% 29.99 in 10.0 mi SSW 4.6 mph - N/A   Clear
4:53 AM 43.0 °F 38.2 °F 28.9 °F 58% 29.97 in 10.0 mi SSW 8.1 mph - N/A   Clear
5:53 AM 41.0 °F 36.4 °F 28.9 °F 62% 29.98 in 10.0 mi SW 6.9 mph - N/A   Clear
6:53 AM 41.0 °F 36.4 °F 28.9 °F 62% 29.99 in 10.0 mi SW 6.9 mph - N/A   Clear
7:53 AM 39.9 °F 35.1 °F 28.9 °F 65% 30.00 in 10.0 mi SW 6.9 mph - N/A   Clear
8:53 AM 42.1 °F 37.7 °F 30.0 °F 62% 30.03 in 10.0 mi WSW 6.9 mph - N/A   Clear
9:53 AM 46.0 °F 41.0 °F 28.9 °F 51% 30.04 in 10.0 mi SW 10.4 mph - N/A   Clear
10:53 AM 50.0 °F - 28.0 °F 43% 30.07 in 10.0 mi WSW 11.5 mph - N/A   Clear
11:53 AM 54.0 °F - 28.0 °F 37% 30.06 in 10.0 mi West 11.5 mph - N/A   Clear
12:53 PM 55.0 °F - 28.0 °F 35% 30.04 in 10.0 mi WSW 8.1 mph - N/A   Clear
1:53 PM 59.0 °F - 28.0 °F 31% 30.03 in 10.0 mi West 6.9 mph - N/A   Clear
2:53 PM 64.0 °F - 26.1 °F 24% 30.02 in 10.0 mi WNW 11.5 mph - N/A   Clear
3:53 PM 64.9 °F - 24.1 °F 21% 30.04 in 10.0 mi WNW 15.0 mph - N/A   Clear
4:53 PM 60.1 °F - 26.1 °F 27% 30.08 in 10.0 mi NW 13.8 mph - N/A   Clear
5:53 PM 52.0 °F - 27.0 °F 38% 30.12 in 10.0 mi NW 8.1 mph - N/A   Clear
6:53 PM 50.0 °F - 27.0 °F 41% 30.16 in 10.0 mi WNW 3.5 mph - N/A   Clear
7:53 PM 46.0 °F 41.9 °F 27.0 °F 47% 30.20 in 10.0 mi NW 8.1 mph - N/A   Clear
8:53 PM 45.0 °F 41.8 °F 27.0 °F 49% 30.22 in 10.0 mi NW 5.8 mph - N/A   Clear
9:53 PM 42.1 °F 37.1 °F 28.0 °F 58% 30.24 in 10.0 mi North 8.1 mph - N/A   Clear
10:53 PM 41.0 °F 35.2 °F 28.4 °F 61% 30.26 in 10.0 mi North 9.2 mph - N/A   Clear
11:53 PM 41.0 °F 33.5 °F 27.0 °F 57% 30.28 in 10.0 mi North 13.8 mph 23.0 mph N/A   Clear